Pittsfield, MA

5:17 PM EST on January 17, 2018 (GMT -0500)
Pittsfield Municipal

Weather History for KPSF - March, 2013

Change the Weather History Date:

Monday, March 18, 2013

  Actual Average Record
Temperature  
Mean Temperature 23 °F 32 °F  
Max Temperature 35 °F 43 °F 72 °F (2012)
Min Temperature 10 °F 22 °F -5 °F (1956)
Degree Days  
Heating Degree Days 42 33  
Month to date heating degree days 632 637  
Since 1 July heating degree days 5571 6017  
Cooling Degree Days 0 0  
Month to date cooling degree days 0 0  
Year to date cooling degree days 0 0  
Moisture  
Dew Point 10 °F    
Average Humidity 55    
Maximum Humidity 88    
Minimum Humidity 22    
Precipitation  
Precipitation 0.12 in 0.13 in 0.86 in (1936)
Month to date precipitation 1.42 1.63  
Year to date precipitation 5.05 7.23  
Sea Level Pressure  
Sea Level Pressure 30.24 in    
Wind  
Wind Speed 5 mph (ESE)    
Max Wind Speed 17 mph    
Max Gust Speed 22 mph    
Visibility 6 miles    
Events Snow    
T = Trace of Precipitation, MM = Missing Value Source: NWS Daily Summary

Daily Weather History Graph

Daily Weather History Graph

Search for Another Location

Airport or City:

Trip Planner

Search our weather history database for the weather conditions in past years. The results will help you decide how hot, cold, wet, or windy it might be!

Date:

Astronomy

Mar. 18, 2013 Rise Set
Actual Time 6:59 AM EDT 7:03 PM EDT
Civil Twilight 6:31 AM EDT 7:31 PM EDT
Nautical Twilight 5:58 AM EDT 8:04 PM EDT
Astronomical Twilight 5:25 AM EDT 8:37 PM EDT
Moon 10:50 AM EDT (3/18) 1:07 AM EDT (3/18)
Length of Visible Light 12h 59m
Length of Day
12h 03m
Waxing Crescent, 40% of the Moon is Illuminated
Mar 18
Waxing Crescent
Mar 19
First Quarter
Mar 27
Full
Apr 3
Last Quarter
Apr 10
New

Hourly Weather History & Observations

Time (EDT) Temp. Windchill Dew Point Humidity Pressure Visibility Wind Dir Wind Speed Gust Speed Precip Events Conditions
12:54 AM 19.0 °F - 1.9 °F 47% 30.32 in 10.0 mi Calm Calm - N/A   Clear
1:54 AM 16.0 °F 10.4 °F 3.0 °F 57% 30.34 in 10.0 mi WNW 3.5 mph - N/A   Clear
2:54 AM 15.1 °F - 1.9 °F 56% 30.35 in 10.0 mi Calm Calm - N/A   Clear
3:54 AM 12.9 °F - 1.0 °F 59% 30.35 in 10.0 mi Calm Calm - N/A   Clear
4:54 AM 12.0 °F - 1.9 °F 64% 30.37 in 10.0 mi Calm Calm - N/A   Clear
5:54 AM 12.0 °F - 3.0 °F 67% 30.38 in 10.0 mi Calm Calm - N/A   Clear
6:54 AM 10.9 °F - 3.0 °F 70% 30.41 in 10.0 mi Calm Calm - N/A   Clear
7:54 AM 14.0 °F 8.2 °F 3.9 °F 64% 30.43 in 10.0 mi North 3.5 mph - N/A   Clear
8:54 AM 17.1 °F 11.7 °F 7.0 °F 65% 30.42 in 10.0 mi NE 3.5 mph - N/A   Clear
9:54 AM 21.0 °F 16.2 °F 1.0 °F 42% 30.39 in 10.0 mi Variable 3.5 mph - N/A   Clear
10:54 AM 26.1 °F 21.9 °F -0.0 °F 32% 30.37 in 10.0 mi NNE 3.5 mph - N/A   Clear
11:54 AM 30.0 °F 26.5 °F -2.0 °F 25% 30.34 in 10.0 mi Variable 3.5 mph - N/A   Clear
12:54 PM 30.9 °F 27.5 °F -4.0 °F 22% 30.33 in 10.0 mi Variable 3.5 mph - N/A   Clear
1:54 PM 33.1 °F 26.1 °F 1.0 °F 26% 30.30 in 10.0 mi SE 8.1 mph - N/A   Clear
2:54 PM 34.0 °F 28.0 °F 1.0 °F 25% 30.28 in 10.0 mi SSE 6.9 mph - N/A   Clear
3:54 PM 34.0 °F 27.2 °F 1.9 °F 26% 30.24 in 10.0 mi SSE 8.1 mph - N/A   Clear
4:54 PM 32.0 °F 24.8 °F 1.9 °F 28% 30.25 in 10.0 mi ESE 8.1 mph - N/A   Mostly Cloudy
5:54 PM 30.9 °F 23.5 °F 1.9 °F 29% 30.22 in 10.0 mi ESE 8.1 mph - N/A   Overcast
6:54 PM 30.0 °F 19.1 °F 8.1 °F 40% 30.22 in 9.0 mi SE 15.0 mph 18.4 mph N/A   Overcast
7:16 PM 28.4 °F 22.2 °F 14.0 °F 55% 30.14 in 3.0 mi Variable 5.8 mph 17.3 mph 0.00 in Snow Light Snow
7:25 PM 26.6 °F 16.2 °F 17.6 °F 69% 30.14 in 1.8 mi ESE 11.5 mph 18.4 mph 0.00 in Snow Light Snow
7:38 PM 24.8 °F 17.9 °F 19.4 °F 80% 30.13 in 1.0 mi East 5.8 mph 16.1 mph 0.00 in Snow Light Snow
7:54 PM 26.1 °F 21.9 °F 21.0 °F 81% 30.19 in 1.8 mi East 3.5 mph - 0.00 in Snow Light Snow
8:14 PM 24.8 °F 15.3 °F 21.2 °F 86% 30.12 in 2.0 mi SE 9.2 mph - 0.00 in Snow Light Snow
8:46 PM 26.6 °F 18.2 °F 19.4 °F 74% 30.13 in 1.8 mi ESE 8.1 mph - 0.01 in Snow Light Snow
8:54 PM 25.0 °F 18.1 °F 21.0 °F 85% 30.19 in 2.0 mi East 5.8 mph - 0.01 in Snow Light Snow
9:03 PM 24.8 °F 16.1 °F 21.2 °F 86% 30.12 in 1.5 mi ESE 8.1 mph - 0.00 in Snow Light Snow
9:34 PM 24.8 °F 19.1 °F 21.2 °F 86% 30.11 in 2.5 mi Variable 4.6 mph - 0.00 in Snow Light Snow
9:54 PM 25.0 °F 17.1 °F 21.0 °F 85% 30.16 in 1.2 mi ESE 6.9 mph - 0.01 in Snow Light Snow
10:18 PM 24.8 °F 16.9 °F 21.2 °F 86% 30.10 in 2.5 mi East 6.9 mph - 0.01 in Snow Light Snow
10:30 PM 24.8 °F 16.1 °F 19.4 °F 80% 30.10 in 1.2 mi East 8.1 mph 18.4 mph 0.01 in Snow Light Snow
10:54 PM 24.1 °F 17.0 °F 21.0 °F 88% 30.14 in 1.2 mi East 5.8 mph - 0.03 in Snow Light Snow
11:38 PM 24.8 °F 19.1 °F 21.2 °F 86% 30.06 in 1.0 mi Variable 4.6 mph - 0.02 in Snow Light Snow
11:54 PM 24.1 °F 15.2 °F 21.9 °F 91% 30.09 in 1.2 mi ENE 8.1 mph - 0.03 in Snow Light Snow